DLH1YN EDDM-LKPR

Flight info

Callsign DLH1YN
Flight time 0h 37m
Altitude 20000
Route AKINI1Q AKINI Y104 MAMOR L132 AGNAV/N0352F190 DCT LOMKI
Aircraft A320/M-SDE3FGHIRWY/LB1

Departure

Time 2026-05-01 12:12
Airport Munich Airport (EDDM)

Arrival

Time 2026-05-01 12:50
Airport Václav Havel Airport Prague (LKPR)
Time Latitude Longitude Altitude Speed Heading
2026-05-01 11:37 48.35594 11.80248 1468 ft 0 kts 83°
2026-05-01 11:51 48.35594 11.80247 1467 ft 0 kts 83°
2026-05-01 11:56 48.35593 11.80237 1461 ft 4 kts 82°
2026-05-01 11:56 48.35587 11.80198 1457 ft 4 kts 66°
2026-05-01 11:56 48.35576 11.80169 1461 ft 4 kts 46°
2026-05-01 11:57 48.35563 11.80152 1457 ft 4 kts 20°
2026-05-01 11:57 48.35548 11.80148 1460 ft 0 kts 353°
2026-05-01 11:58 48.35547 11.80148 1460 ft 0 kts 353°
2026-05-01 12:01 48.35572 11.80143 1457 ft 9 kts 353°
2026-05-01 12:01 48.35659 11.80104 1462 ft 12 kts 331°
2026-05-01 12:01 48.35748 11.80072 1467 ft 9 kts 354°
2026-05-01 12:02 48.35807 11.80050 1458 ft 9 kts 330°
2026-05-01 12:02 48.35846 11.79931 1467 ft 16 kts 269°
2026-05-01 12:02 48.35829 11.79703 1467 ft 22 kts 264°
2026-05-01 12:02 48.35819 11.79561 1467 ft 12 kts 262°
2026-05-01 12:03 48.35808 11.79422 1467 ft 9 kts 270°
2026-05-01 12:03 48.35844 11.79388 1461 ft 1 kts 346°
2026-05-01 12:03 48.35876 11.79382 1466 ft 5 kts 353°
2026-05-01 12:03 48.35934 11.79348 1467 ft 8 kts 340°
2026-05-01 12:04 48.36002 11.79334 1463 ft 10 kts 354°
2026-05-01 12:04 48.36013 11.79333 1467 ft 0 kts 354°
2026-05-01 12:06 48.36030 11.79330 1463 ft 8 kts 353°
2026-05-01 12:06 48.36087 11.79275 1460 ft 14 kts 287°
2026-05-01 12:06 48.36073 11.79065 1468 ft 26 kts 263°
2026-05-01 12:07 48.36050 11.78763 1460 ft 32 kts 264°
2026-05-01 12:07 48.36024 11.78416 1461 ft 35 kts 262°
2026-05-01 12:07 48.35996 11.78070 1467 ft 36 kts 263°
2026-05-01 12:07 48.35967 11.77685 1467 ft 38 kts 264°
2026-05-01 12:08 48.35939 11.77328 1464 ft 30 kts 261°
2026-05-01 12:08 48.35925 11.77123 1463 ft 13 kts 268°
2026-05-01 12:08 48.35968 11.77015 1461 ft 11 kts 313°
2026-05-01 12:08 48.36028 11.76975 1465 ft 9 kts 352°
2026-05-01 12:09 48.36085 11.76963 1463 ft 7 kts 352°
2026-05-01 12:09 48.36119 11.76956 1463 ft 3 kts 352°
2026-05-01 12:09 48.36136 11.76952 1467 ft 2 kts 352°
2026-05-01 12:09 48.36147 11.76950 1463 ft 1 kts 352°
2026-05-01 12:10 48.36156 11.76948 1461 ft 1 kts 352°
2026-05-01 12:10 48.36251 11.76942 1467 ft 10 kts 17°
2026-05-01 12:10 48.36293 11.77001 1459 ft 7 kts 65°
2026-05-01 12:11 48.36305 11.77115 1471 ft 3 kts 83°
2026-05-01 12:11 48.36308 11.77158 1462 ft 7 kts 84°
2026-05-01 12:11 48.36334 11.77495 1469 ft 68 kts 83°
2026-05-01 12:12 48.36413 11.78537 1463 ft 129 kts 84°
2026-05-01 12:12 48.36533 11.80089 1652 ft 159 kts 83°
2026-05-01 12:12 48.36663 11.81736 2448 ft 159 kts 83°
2026-05-01 12:12 48.36783 11.83399 3179 ft 167 kts 83°
2026-05-01 12:13 48.36948 11.85258 3583 ft 190 kts 77°
2026-05-01 12:13 48.37508 11.87142 4242 ft 209 kts 56°
2026-05-01 12:13 48.38614 11.88610 5014 ft 219 kts 36°
2026-05-01 12:13 48.39979 11.89868 5493 ft 242 kts 35°
2026-05-01 12:14 48.41467 11.91258 6024 ft 261 kts 37°
2026-05-01 12:14 48.42796 11.93147 6900 ft 264 kts 57°
2026-05-01 12:14 48.43835 11.95439 7821 ft 267 kts 59°
2026-05-01 12:14 48.44855 11.97739 8758 ft 269 kts 58°
2026-05-01 12:15 48.45987 12.00059 9747 ft 274 kts 49°
2026-05-01 12:15 48.47426 12.01908 10638 ft 279 kts 34°
2026-05-01 12:15 48.49213 12.03201 11510 ft 285 kts 20°
2026-05-01 12:15 48.51171 12.03761 12370 ft 290 kts
2026-05-01 12:16 48.53174 12.03781 13224 ft 293 kts
2026-05-01 12:16 48.55224 12.03779 14053 ft 296 kts
2026-05-01 12:16 48.57321 12.03778 14811 ft 299 kts
2026-05-01 12:16 48.59390 12.03777 15518 ft 303 kts
2026-05-01 12:17 48.61500 12.03871 16225 ft 304 kts 10°
2026-05-01 12:17 48.63579 12.04630 16936 ft 304 kts 24°
2026-05-01 12:17 48.65519 12.05935 17637 ft 306 kts 27°
2026-05-01 12:17 48.67437 12.07263 18336 ft 310 kts 27°
2026-05-01 12:18 48.69409 12.08620 18982 ft 313 kts 27°
2026-05-01 12:18 48.71424 12.10000 19603 ft 315 kts 26°
2026-05-01 12:18 48.73432 12.11370 20165 ft 319 kts 26°
2026-05-01 12:18 48.75456 12.12752 20345 ft 321 kts 27°
2026-05-01 12:19 48.77548 12.14220 20389 ft 339 kts 27°
2026-05-01 12:19 48.79667 12.15743 20393 ft 343 kts 27°
2026-05-01 12:19 48.81824 12.17307 20394 ft 344 kts 27°
2026-05-01 12:19 48.83983 12.18876 20394 ft 344 kts 27°
2026-05-01 12:20 48.86147 12.20449 20395 ft 345 kts 27°
2026-05-01 12:20 48.88309 12.22018 20394 ft 344 kts 27°
2026-05-01 12:20 48.90474 12.23574 20395 ft 344 kts 27°
2026-05-01 12:20 48.92648 12.25105 20394 ft 344 kts 27°
2026-05-01 12:21 48.94825 12.26627 20396 ft 344 kts 27°
2026-05-01 12:21 48.97003 12.28147 20397 ft 344 kts 26°
2026-05-01 12:21 48.99182 12.29675 20396 ft 344 kts 27°
2026-05-01 12:21 49.01356 12.31205 20401 ft 344 kts 27°
2026-05-01 12:22 49.03530 12.32740 20401 ft 344 kts 27°
2026-05-01 12:22 49.05700 12.34276 20396 ft 344 kts 27°
2026-05-01 12:22 49.07872 12.35820 20400 ft 344 kts 27°
2026-05-01 12:22 49.10043 12.37363 20396 ft 345 kts 27°
2026-05-01 12:23 49.12218 12.38905 20395 ft 345 kts 27°
2026-05-01 12:23 49.14398 12.40445 20404 ft 345 kts 27°
2026-05-01 12:23 49.16574 12.41987 20398 ft 345 kts 27°
2026-05-01 12:23 49.18747 12.43534 20402 ft 345 kts 27°
2026-05-01 12:24 49.20921 12.45084 20401 ft 344 kts 27°
2026-05-01 12:24 49.23090 12.46632 20399 ft 344 kts 27°
2026-05-01 12:24 49.25261 12.48183 20398 ft 344 kts 27°
2026-05-01 12:24 49.27430 12.49733 20401 ft 344 kts 27°
2026-05-01 12:25 49.29599 12.51283 20397 ft 344 kts 27°
2026-05-01 12:25 49.33989 12.54205 20395 ft 346 kts 19°
2026-05-01 12:25 49.36347 12.55006 20394 ft 347 kts 14°
2026-05-01 12:26 49.38714 12.55738 20394 ft 347 kts 14°
2026-05-01 12:26 49.43455 12.57227 20395 ft 348 kts 14°
2026-05-01 12:26 49.45825 12.57979 20399 ft 348 kts 14°
2026-05-01 12:27 49.48195 12.58733 20403 ft 348 kts 14°
2026-05-01 12:27 49.52935 12.60235 20406 ft 348 kts 15°
2026-05-01 12:28 49.57301 12.63134 20406 ft 341 kts 38°
2026-05-01 12:28 49.59053 12.65564 20406 ft 339 kts 49°
2026-05-01 12:28 49.62084 12.71072 20410 ft 339 kts 50°
2026-05-01 12:29 49.63608 12.73842 20412 ft 339 kts 50°
2026-05-01 12:29 49.65132 12.76618 20409 ft 339 kts 50°
2026-05-01 12:29 49.68178 12.82172 20413 ft 339 kts 50°
2026-05-01 12:30 49.71223 12.87735 20414 ft 339 kts 50°
2026-05-01 12:30 49.72742 12.90520 20417 ft 339 kts 50°
2026-05-01 12:30 49.74259 12.93303 20417 ft 339 kts 50°
2026-05-01 12:31 49.75777 12.96090 20416 ft 338 kts 50°
2026-05-01 12:31 49.77294 12.98879 20415 ft 339 kts 50°
2026-05-01 12:31 49.78810 13.01667 20416 ft 338 kts 50°
2026-05-01 12:31 49.80324 13.04453 20415 ft 338 kts 50°
2026-05-01 12:32 49.81836 13.07243 20415 ft 338 kts 50°
2026-05-01 12:32 49.84847 13.12824 20417 ft 338 kts 50°
2026-05-01 12:32 49.86356 13.15623 20415 ft 338 kts 51°
2026-05-01 12:33 49.87862 13.18418 20417 ft 337 kts 50°
2026-05-01 12:33 49.89270 13.21317 20409 ft 337 kts 59°
2026-05-01 12:33 49.90238 13.24618 20413 ft 337 kts 71°
2026-05-01 12:33 49.90693 13.28191 20408 ft 339 kts 84°
2026-05-01 12:34 49.90657 13.31856 20409 ft 341 kts 91°
2026-05-01 12:34 49.90523 13.35527 20410 ft 341 kts 90°
2026-05-01 12:34 49.90390 13.39203 20409 ft 341 kts 90°
2026-05-01 12:34 49.90272 13.42877 20409 ft 340 kts 87°
2026-05-01 12:35 49.90513 13.46507 20408 ft 337 kts 75°
2026-05-01 12:35 49.91254 13.49936 20404 ft 336 kts 64°
2026-05-01 12:35 49.92449 13.53024 20306 ft 332 kts 53°
2026-05-01 12:35 49.93845 13.55822 20056 ft 324 kts 52°
2026-05-01 12:36 49.95207 13.58558 19813 ft 317 kts 52°
2026-05-01 12:36 49.96529 13.61226 19574 ft 315 kts 53°
2026-05-01 12:36 49.97860 13.63920 19336 ft 314 kts 53°
2026-05-01 12:36 49.99184 13.66599 19099 ft 312 kts 53°
2026-05-01 12:37 50.00501 13.69274 18861 ft 311 kts 53°
2026-05-01 12:37 50.01811 13.71942 18616 ft 310 kts 53°
2026-05-01 12:37 50.03113 13.74605 18347 ft 309 kts 53°
2026-05-01 12:37 50.04408 13.77254 18075 ft 307 kts 53°
2026-05-01 12:38 50.05701 13.79892 17807 ft 306 kts 53°
2026-05-01 12:38 50.06948 13.82563 17556 ft 304 kts 59°
2026-05-01 12:38 50.07824 13.85541 17292 ft 303 kts 72°
2026-05-01 12:38 50.08273 13.88745 17029 ft 303 kts 78°
2026-05-01 12:39 50.08635 13.91968 16777 ft 301 kts 78°
2026-05-01 12:39 50.08996 13.95152 16459 ft 298 kts 78°
2026-05-01 12:39 50.09357 13.98323 16079 ft 297 kts 78°
2026-05-01 12:39 50.09716 14.01488 15689 ft 297 kts 78°
2026-05-01 12:40 50.10078 14.04659 15299 ft 297 kts 78°
2026-05-01 12:40 50.10435 14.07828 14908 ft 297 kts 78°
2026-05-01 12:40 50.10790 14.11000 14513 ft 298 kts 78°
2026-05-01 12:40 50.11146 14.14179 14113 ft 298 kts 78°
2026-05-01 12:41 50.11502 14.17358 13695 ft 298 kts 78°
2026-05-01 12:41 50.11857 14.20525 13295 ft 296 kts 78°
2026-05-01 12:41 50.12208 14.23668 13024 ft 290 kts 78°
2026-05-01 12:41 50.12544 14.26719 12845 ft 282 kts 78°
2026-05-01 12:42 50.12874 14.29724 12508 ft 280 kts 78°
2026-05-01 12:42 50.13207 14.32738 12016 ft 284 kts 78°
2026-05-01 12:42 50.13531 14.35777 11622 ft 284 kts 82°
2026-05-01 12:42 50.13466 14.38858 11258 ft 287 kts 98°
2026-05-01 12:43 50.12786 14.41789 10873 ft 291 kts 116°
2026-05-01 12:43 50.11615 14.44375 10488 ft 293 kts 123°
2026-05-01 12:43 50.10801 14.46045 10326 ft 289 kts 123°
2026-05-01 12:43 50.09612 14.48475 10187 ft 277 kts 123°
2026-05-01 12:44 50.08468 14.50814 9779 ft 270 kts 123°
2026-05-01 12:44 50.07336 14.53135 9442 ft 268 kts 123°
2026-05-01 12:44 50.04979 14.57539 8246 ft 270 kts 143°
2026-05-01 12:45 50.01324 14.57647 6962 ft 278 kts 208°
2026-05-01 12:45 49.99841 14.55727 6192 ft 281 kts 234°
2026-05-01 12:45 49.99013 14.53014 5474 ft 278 kts 260°
2026-05-01 12:46 49.98981 14.50067 4783 ft 273 kts 284°
2026-05-01 12:46 49.99696 14.47440 4339 ft 257 kts 306°
2026-05-01 12:46 50.00713 14.45326 4004 ft 232 kts 308°
2026-05-01 12:46 50.01644 14.43416 3705 ft 212 kts 308°
2026-05-01 12:47 50.02496 14.41666 3460 ft 193 kts 309°
2026-05-01 12:47 50.03274 14.40074 3149 ft 178 kts 309°
2026-05-01 12:47 50.03998 14.38586 2816 ft 167 kts 308°
2026-05-01 12:47 50.04731 14.37086 2410 ft 186 kts 309°
2026-05-01 12:48 50.05529 14.35506 2326 ft 182 kts 308°
2026-05-01 12:48 50.06240 14.33953 2189 ft 171 kts 307°
2026-05-01 12:48 50.06920 14.32530 2054 ft 154 kts 309°
2026-05-01 12:48 50.07551 14.31242 1794 ft 145 kts 309°
2026-05-01 12:49 50.08159 14.29999 1516 ft 142 kts 309°
2026-05-01 12:49 50.08747 14.28778 1303 ft 143 kts 309°
2026-05-01 12:49 50.09346 14.27555 1180 ft 133 kts 309°
2026-05-01 12:49 50.09818 14.26577 1174 ft 90 kts 308°
2026-05-01 12:50 50.10090 14.26021 1174 ft 50 kts 303°
2026-05-01 12:50 50.10228 14.25750 1173 ft 23 kts 321°
2026-05-01 12:50 50.10361 14.25660 1173 ft 17 kts 351°
2026-05-01 12:50 50.10395 14.25656 1176 ft 0 kts 359°
2026-05-01 12:51 50.10419 14.25659 1176 ft 8 kts
2026-05-01 12:52 50.10479 14.25710 1173 ft 11 kts 59°
2026-05-01 12:52 50.10502 14.25862 1175 ft 13 kts 79°
2026-05-01 12:52 50.10520 14.26007 1172 ft 10 kts 78°
2026-05-01 12:53 50.10552 14.26121 1172 ft 8 kts 54°
2026-05-01 12:53 50.10581 14.26185 1173 ft 3 kts 52°
2026-05-01 12:53 50.10603 14.26211 1176 ft 3 kts 19°
2026-05-01 12:54 50.10615 14.26216 1176 ft 0 kts 14°